Date String (YYYY-MM-DD hh:mm:ss) UTC,Instrument flags,Ambient pressure (hPa),Sample flow (lpm),Bypass flow (lpm),Sample temperature (°C),Ambient temperature (°C),ASC tube jacket temperature (°C),LED temperature (°C),Box temperature (°C),Sample RH (%),Span deviation,Mass concentration (μg/m³),Mass concentration (μg/m³),Mass concentration (μg/m³)
DateTimeUTC,F1_M11,P_M11,Q1_M11,Q2_M11,T1_M11,T2_M11,T3_M11,T4_M11,T5_M11,U1_M11,ZSPAN_M11,X0_M11,X2_M11,X1_M11
2022-05-10 23:00:00,,0823.2,5.00,0.00,29.2,28.7,00.0,38.0,31.1,10.0,0000.0,0016.75,0004.69,0001.98
2022-05-10 23:01:00,,0823.3,4.99,0.00,29.2,28.7,00.0,38.0,31.1,10.0,0000.0,0017.39,0004.61,0001.99
2022-05-10 23:02:00,,0823.2,5.00,0.00,29.3,28.7,00.0,38.0,31.1,10.3,0000.0,0016.62,0004.56,0001.97
2022-05-10 23:03:00,,0823.2,5.00,0.00,29.3,28.7,00.0,38.0,31.2,10.0,0000.0,0017.20,0004.53,0001.96
2022-05-10 23:04:00,,0823.3,5.00,0.00,29.3,28.8,00.0,38.1,31.2,10.0,0000.0,0017.87,0004.55,0001.94
2022-05-10 23:05:00,,0823.3,5.01,0.00,29.3,28.8,00.0,38.1,31.2,10.0,0000.0,0018.59,0004.57,0001.94
2022-05-10 23:06:00,,0823.2,5.00,0.00,29.3,28.8,00.0,38.1,31.2,10.0,0000.0,0018.80,0004.58,0001.93
2022-05-10 23:07:00,,0823.2,5.00,0.00,29.4,28.8,00.0,38.1,31.2,09.9,0000.0,0018.07,0004.52,0001.91
2022-05-10 23:08:00,,0823.2,4.99,0.00,29.4,28.8,00.0,38.1,31.2,10.0,0000.0,0018.27,0004.48,0001.90
2022-05-10 23:09:00,,0823.2,5.00,0.00,29.4,28.8,00.0,38.2,31.2,10.0,0000.0,0017.31,0004.46,0001.89
2022-05-10 23:10:00,,0823.2,5.00,0.00,29.4,28.8,00.0,38.2,31.3,10.0,0000.0,0017.51,0004.42,0001.88
2022-05-10 23:11:00,,0823.3,5.00,0.00,29.4,28.8,00.0,38.2,31.3,10.0,0000.0,0019.08,0004.46,0001.87
2022-05-10 23:12:00,,0823.2,5.00,0.00,29.4,28.9,00.0,38.2,31.3,09.9,0000.0,0020.32,0004.54,0001.85
2022-05-10 23:13:00,,0823.1,4.99,0.00,29.5,28.9,00.0,38.2,31.3,09.8,0000.0,0022.70,0004.52,0001.85
2022-05-10 23:14:00,,0823.0,5.01,0.00,29.5,28.9,00.0,38.2,31.3,09.9,0000.0,0022.59,0004.48,0001.84
2022-05-10 23:15:00,,0822.9,4.99,0.00,29.5,29.0,00.0,38.3,31.4,09.9,0000.0,0022.05,0004.48,0001.85
2022-05-10 23:16:00,,0823.0,4.99,0.00,29.5,29.0,00.0,38.3,31.4,09.7,0000.0,0021.43,0004.40,0001.83
2022-05-10 23:17:00,,0823.0,5.00,0.00,29.5,29.0,00.0,38.3,31.4,09.6,0000.0,0021.38,0004.41,0001.84
2022-05-10 23:18:00,,0823.0,5.00,0.00,29.6,29.0,00.0,38.3,31.4,09.7,0000.0,0022.92,0004.46,0001.86
2022-05-10 23:19:00,,0823.1,5.01,0.00,29.6,29.0,00.0,38.3,31.4,09.7,0000.0,0023.24,0004.50,0001.86
2022-05-10 23:20:00,,0823.0,5.00,0.00,29.6,29.0,00.0,38.4,31.5,10.1,0000.0,0024.75,0004.59,0001.88
2022-05-10 23:21:00,,0823.1,5.00,0.00,29.6,29.0,00.0,38.4,31.5,09.9,0000.0,0024.57,0004.59,0001.89
2022-05-10 23:22:00,,0823.1,4.99,0.00,29.6,29.1,00.0,38.4,31.5,09.9,0000.0,0023.70,0004.60,0001.88
2022-05-10 23:23:00,,0823.1,5.01,0.00,29.7,29.1,00.0,38.4,31.5,10.0,0000.0,0022.18,0004.53,0001.88
2022-05-10 23:24:00,,0823.0,5.00,0.00,29.7,29.1,00.0,38.4,31.5,09.8,0000.0,0020.20,0004.52,0001.89
2022-05-10 23:25:00,,0823.0,5.01,0.00,29.7,29.1,00.0,38.4,31.5,09.9,0000.0,0019.65,0004.55,0001.91
2022-05-10 23:26:00,,0822.9,4.98,0.00,29.7,29.1,00.0,38.5,31.5,10.0,0000.0,0019.54,0004.52,0001.91
2022-05-10 23:27:00,,0823.0,5.00,0.00,29.7,29.2,00.0,38.5,31.6,10.0,0000.0,0019.24,0004.62,0001.93
2022-05-10 23:28:00,,0822.9,5.01,0.00,29.8,29.2,00.0,38.5,31.6,09.9,0000.0,0019.30,0004.57,0001.94
2022-05-10 23:29:00,,0823.0,5.01,0.00,29.8,29.2,00.0,38.5,31.6,10.1,0000.0,0018.65,0004.56,0001.94
2022-05-10 23:30:00,,0823.0,5.00,0.00,29.8,29.2,00.0,38.6,31.6,10.1,0000.0,0018.57,0004.59,0001.96
2022-05-10 23:31:00,,0823.0,5.00,0.00,29.8,29.2,00.0,38.6,31.6,10.3,0000.0,0017.34,0004.57,0001.97
2022-05-10 23:32:00,,0822.9,5.00,0.00,29.8,29.3,00.0,38.6,31.6,09.9,0000.0,0017.06,0004.59,0001.98
2022-05-10 23:33:00,,0822.9,5.00,0.00,29.8,29.3,00.0,38.6,31.6,10.0,0000.0,0016.95,0004.65,0002.02
2022-05-10 23:34:00,,0822.9,5.00,0.00,29.8,29.3,00.0,38.6,31.6,10.0,0000.0,0018.09,0004.72,0002.04
2022-05-10 23:35:00,,0822.9,4.99,0.00,29.8,29.3,00.0,38.6,31.7,10.3,0000.0,0018.55,0004.77,0002.08
2022-05-10 23:36:00,,0823.0,5.00,0.00,29.9,29.3,00.0,38.7,31.7,10.0,0000.0,0018.90,0004.76,0002.08
2022-05-10 23:37:00,,0823.0,5.00,0.00,29.9,29.3,00.0,38.7,31.7,09.9,0000.0,0019.01,0004.82,0002.10
2022-05-10 23:38:00,,0822.9,5.00,0.00,29.9,29.3,00.0,38.7,31.7,10.0,0000.0,0019.09,0004.78,0002.09
2022-05-10 23:39:00,,0822.9,5.00,0.00,29.9,29.3,00.0,38.7,31.7,10.0,0000.0,0020.25,0004.91,0002.13
2022-05-10 23:40:00,,0822.9,4.99,0.00,29.9,29.3,00.0,38.7,31.8,10.1,0000.0,0019.48,0004.94,0002.15
2022-05-10 23:41:00,,0822.9,5.01,0.00,29.9,29.3,00.0,38.7,31.8,09.9,0000.0,0020.12,0004.91,0002.15
2022-05-10 23:42:00,,0822.9,4.99,0.00,30.0,29.3,00.0,38.7,31.8,09.9,0000.0,0020.87,0004.88,0002.14
2022-05-10 23:43:00,,0822.9,5.00,0.00,30.0,29.4,00.0,38.8,31.8,10.3,0000.0,0021.58,0004.93,0002.14
2022-05-10 23:44:00,,0822.9,5.00,0.00,30.0,29.4,00.0,38.8,31.8,10.1,0000.0,0023.34,0005.02,0002.15
2022-05-10 23:45:00,,0823.0,5.00,0.00,30.0,29.4,00.0,38.8,31.9,09.9,0000.0,0023.23,0005.06,0002.15
2022-05-10 23:46:00,,0822.9,5.00,0.00,30.0,29.4,00.0,38.8,31.9,10.0,0000.0,0022.60,0005.04,0002.13
2022-05-10 23:47:00,,0822.8,4.99,0.00,30.0,29.5,00.0,38.8,31.9,10.1,0000.0,0022.30,0005.04,0002.13
2022-05-10 23:48:00,,0822.7,5.00,0.00,30.1,29.4,00.0,38.9,31.8,10.3,0000.0,0023.29,0005.01,0002.12
2022-05-10 23:49:00,,0822.7,5.02,0.00,30.0,27.6,00.0,38.8,31.5,10.1,0000.0,0023.85,0005.04,0002.13
2022-05-10 23:50:00,,0822.7,4.99,0.00,29.9,25.8,00.0,38.8,31.1,10.4,0000.0,0023.91,0004.99,0002.10
2022-05-10 23:51:00,,0822.7,5.01,0.00,29.8,25.9,00.0,38.8,31.1,10.7,0000.0,0024.34,0004.99,0002.09
2022-05-10 23:52:00,,0822.7,4.99,0.00,29.7,26.3,00.0,38.7,31.2,11.0,0000.0,0023.66,0004.99,0002.10
2022-05-10 23:53:00,,0822.8,5.01,0.00,29.7,26.8,00.0,38.7,31.3,10.6,0000.0,0023.64,0004.98,0002.10
2022-05-10 23:54:00,,0822.8,4.99,0.00,29.7,27.2,00.0,38.7,31.4,10.5,0000.0,0022.87,0004.96,0002.11
2022-05-10 23:55:00,,0822.8,5.00,0.00,29.7,27.6,00.0,38.6,31.4,10.5,0000.0,0022.05,0004.86,0002.10
2022-05-10 23:56:00,,0822.7,5.00,0.00,29.7,27.9,00.0,38.6,31.5,10.4,0000.0,0021.63,0004.78,0002.08
2022-05-10 23:57:00,,0822.8,5.00,0.00,29.7,28.1,00.0,38.6,31.5,10.7,0000.0,0022.30,0004.83,0002.09
2022-05-10 23:58:00,,0822.9,4.99,0.00,29.7,28.3,00.0,38.6,31.5,10.8,0000.0,0022.88,0004.82,0002.09
2022-05-10 23:59:00,,0822.9,5.00,0.00,29.7,28.5,00.0,38.6,31.5,10.8,0000.0,0021.93,0004.86,0002.09
